This is the latest recevied weather packets stored in our database for station/object KB1QVF. If no packets are shown the sender has not sent any weather packets the latest 10 day(s).
| Time | Temp. | Humidity | Pressure | Rain* | Wind** | Luminosity | Snow |
|---|---|---|---|---|---|---|---|
| 1777933932 | 16.67° C | 45% | 1011.1 hPa | 0 mm | - | 93 W/m² | - |
| 1777933629 | 16.67° C | 45% | 1011.1 hPa | 0 mm | - | 82 W/m² | - |
| 1777933326 | 16.67° C | 45% | 1010.9 hPa | 0 mm | - | 58 W/m² | - |
| 1777933023 | 16.67° C | 45% | 1011 hPa | 0 mm | - | 84 W/m² | - |
| 1777932720 | 17.22° C | 44% | 1011 hPa | 0 mm | - | 68 W/m² | - |
| 1777932416 | 17.22° C | 43% | 1010.9 hPa | 0 mm | - | 107 W/m² | - |
| 1777932114 | 17.78° C | 44% | 1011.2 hPa | 0 mm | - | 136 W/m² | - |
| 1777931810 | 17.78° C | 43% | 1010.9 hPa | 0 mm | - | 179 W/m² | - |
| 1777931508 | 17.78° C | 43% | 1011.1 hPa | 0 mm | - | 199 W/m² | - |
| 1777931203 | 17.78° C | 42% | 1010.7 hPa | 0 mm | - | 224 W/m² | - |
| 1777930900 | 18.33° C | 40% | 1010.8 hPa | 0 mm | - | 235 W/m² | - |
| 1777930597 | 18.33° C | 40% | 1011 hPa | 0 mm | - | 218 W/m² | - |
| 1777930293 | 18.89° C | 39% | 1010.9 hPa | 0 mm | - | 260 W/m² | - |
| 1777929990 | 18.89° C | 39% | 1010.7 hPa | 0 mm | - | 286 W/m² | - |
| 1777929687 | 18.89° C | 39% | 1010.9 hPa | 0 mm | - | 300 W/m² | - |
| 1777929385 | 18.89° C | 40% | 1010.9 hPa | 0 mm | - | 317 W/m² | - |
| 1777929080 | 18.33° C | 39% | 1010.6 hPa | 0 mm | - | 327 W/m² | - |
| 1777928779 | 18.89° C | 38% | 1010.7 hPa | 0 mm | - | 330 W/m² | - |
| 1777928474 | 19.44° C | 37% | 1010.6 hPa | 0 mm | - | 367 W/m² | - |
| 1777928172 | 19.44° C | 38% | 1010.6 hPa | 0 mm | - | 378 W/m² | - |
| 1777927870 | 18.33° C | 38% | 1010.6 hPa | 0 mm | - | 395 W/m² | - |
| 1777927568 | 18.33° C | 38% | 1010.5 hPa | 0 mm | - | 408 W/m² | - |
| 1777927267 | 18.89° C | 36% | 1010.7 hPa | 0 mm | - | 428 W/m² | - |
| 1777926965 | 18.89° C | 37% | 1010.7 hPa | 0 mm | - | 441 W/m² | - |
| 1777926662 | 18.89° C | 37% | 1010.2 hPa | 0 mm | - | 468 W/m² | - |
* Rain latest hour (hover to see other rain measurements)
** Current wind speed in m/s (hover to see current wind gust speed)